Location: Biberach+an+der+Riss
(48.0937°N, 9.7888°E)
Time: 10:06:58
(UTC+01:00)

ISS - Pass Details

Date: 13 January 2018
Orbit: 402 x 407 km, 51.6° (Epoch: 21 January)

Event Time Altitude Azimuth Distance (km) Brightness Sun altitude
Exits shadow 05:33:42 30° 114° (ESE) 751 -2.0 -25.0°
Drops below altitude 10° 05:35:31 10° 114° (ESE) 1,464 -0.1 -24.7°
Sets 05:37:36 0° 115° (ESE) 2,322 1.2 -24.3°
